AUA62C LOWW-LDSP

Flight info

Callsign AUA62C
Flight time 0h 55m
Altitude 33000
Route STEIN DCT NOHAT DCT KOPRY/N0445F360 DCT DEVUL DCT NUPSO
Aircraft E195/M-SDE3GILORVW/S

Departure

Time 2026-04-24 11:20
Airport Vienna International Airport (LOWW)

Arrival

Time 2026-04-24 12:15
Airport Split Saint Jerome Airport (LDSP)
Time Latitude Longitude Altitude Speed Heading
2026-04-24 10:59 48.11539 16.56795 603 ft 0 kts 207°
2026-04-24 11:15 48.11531 16.56789 603 ft 2 kts 207°
2026-04-24 11:15 48.11512 16.56774 603 ft 4 kts 207°
2026-04-24 11:16 48.11474 16.56769 602 ft 6 kts 139°
2026-04-24 11:16 48.11441 16.56823 603 ft 7 kts 144°
2026-04-24 11:16 48.11382 16.56819 601 ft 9 kts 181°
2026-04-24 11:16 48.11338 16.56884 602 ft 9 kts 117°
2026-04-24 11:17 48.11304 16.56981 603 ft 11 kts 117°
2026-04-24 11:17 48.11268 16.57094 603 ft 13 kts 116°
2026-04-24 11:17 48.11223 16.57231 602 ft 15 kts 116°
2026-04-24 11:17 48.11173 16.57390 600 ft 18 kts 115°
2026-04-24 11:18 48.11113 16.57528 598 ft 14 kts 159°
2026-04-24 11:18 48.11020 16.57487 598 ft 14 kts 208°
2026-04-24 11:18 48.10963 16.57441 599 ft 4 kts 218°
2026-04-24 11:18 48.10958 16.57412 600 ft 2 kts 287°
2026-04-24 11:19 48.10961 16.57401 600 ft 0 kts 292°
2026-04-24 11:19 48.10964 16.57390 600 ft 10 kts 292°
2026-04-24 11:19 48.11102 16.56960 602 ft 77 kts 296°
2026-04-24 11:20 48.11430 16.55958 586 ft 134 kts 296°
2026-04-24 11:20 48.11909 16.54475 698 ft 165 kts 296°
2026-04-24 11:20 48.12315 16.52844 1255 ft 172 kts 276°
2026-04-24 11:20 48.11903 16.51099 1752 ft 192 kts 232°
2026-04-24 11:21 48.10748 16.49939 2506 ft 204 kts 210°
2026-04-24 11:21 48.09436 16.49076 3269 ft 204 kts 212°
2026-04-24 11:21 48.08175 16.48124 3708 ft 205 kts 211°
2026-04-24 11:21 48.06753 16.47657 4302 ft 222 kts 183°
2026-04-24 11:22 48.05195 16.48010 4916 ft 233 kts 172°
2026-04-24 11:22 48.03590 16.48494 5558 ft 242 kts 172°
2026-04-24 11:22 48.01973 16.48987 6440 ft 238 kts 178°
2026-04-24 11:22 48.00337 16.49021 7148 ft 239 kts 184°
2026-04-24 11:23 47.98666 16.49111 7874 ft 243 kts 180°
2026-04-24 11:23 47.96977 16.49052 8600 ft 238 kts 206°
2026-04-24 11:23 47.95517 16.48039 9343 ft 232 kts 213°
2026-04-24 11:23 47.94008 16.46863 9504 ft 261 kts 213°
2026-04-24 11:24 47.92286 16.45525 9620 ft 292 kts 212°
2026-04-24 11:24 47.90422 16.44082 9978 ft 312 kts 212°
2026-04-24 11:24 47.88401 16.42799 10604 ft 324 kts 193°
2026-04-24 11:24 47.86140 16.42918 11274 ft 333 kts 167°
2026-04-24 11:25 47.83879 16.43815 11898 ft 341 kts 165°
2026-04-24 11:25 47.81571 16.44736 12473 ft 350 kts 165°
2026-04-24 11:25 47.79214 16.45671 13124 ft 355 kts 165°
2026-04-24 11:25 47.76812 16.46621 13838 ft 358 kts 165°
2026-04-24 11:26 47.74427 16.47563 14550 ft 361 kts 165°
2026-04-24 11:26 47.71995 16.48523 15275 ft 363 kts 165°
2026-04-24 11:26 47.69546 16.49489 15961 ft 366 kts 165°
2026-04-24 11:26 47.67094 16.50454 16642 ft 369 kts 164°
2026-04-24 11:27 47.64598 16.51436 17303 ft 372 kts 164°
2026-04-24 11:27 47.62109 16.52413 17942 ft 376 kts 164°
2026-04-24 11:27 47.59569 16.53408 18629 ft 378 kts 164°
2026-04-24 11:27 47.57032 16.54401 19281 ft 380 kts 164°
2026-04-24 11:28 47.54448 16.55411 19942 ft 383 kts 164°
2026-04-24 11:28 47.51859 16.56423 20590 ft 386 kts 164°
2026-04-24 11:28 47.49249 16.57441 21222 ft 388 kts 164°
2026-04-24 11:28 47.46579 16.58482 21863 ft 391 kts 163°
2026-04-24 11:29 47.43931 16.59512 22474 ft 394 kts 164°
2026-04-24 11:29 47.41167 16.60033 23031 ft 399 kts 177°
2026-04-24 11:29 47.38375 16.60160 23605 ft 403 kts 177°
2026-04-24 11:29 47.35561 16.60285 24183 ft 406 kts 177°
2026-04-24 11:30 47.32696 16.60410 24736 ft 409 kts 177°
2026-04-24 11:30 47.29840 16.60535 25246 ft 414 kts 177°
2026-04-24 11:30 47.26906 16.60663 25771 ft 417 kts 177°
2026-04-24 11:30 47.24007 16.60789 26299 ft 420 kts 177°
2026-04-24 11:31 47.21019 16.60918 26806 ft 424 kts 177°
2026-04-24 11:31 47.18059 16.61047 27307 ft 428 kts 177°
2026-04-24 11:31 47.15072 16.61176 27841 ft 430 kts 177°
2026-04-24 11:31 47.12053 16.61307 28353 ft 433 kts 177°
2026-04-24 11:32 47.08004 16.61482 29012 ft 437 kts 177°
2026-04-24 11:32 47.05953 16.61571 29341 ft 439 kts 177°
2026-04-24 11:32 47.02855 16.61705 29826 ft 442 kts 177°
2026-04-24 11:32 46.99728 16.61839 30310 ft 445 kts 177°
2026-04-24 11:33 46.96572 16.61975 30775 ft 448 kts 176°
2026-04-24 11:33 46.93409 16.62111 31183 ft 452 kts 176°
2026-04-24 11:33 46.90222 16.62248 31569 ft 456 kts 176°
2026-04-24 11:33 46.87027 16.62385 31909 ft 461 kts 176°
2026-04-24 11:34 46.83778 16.62549 32338 ft 462 kts 173°
2026-04-24 11:34 46.80625 16.63259 32779 ft 460 kts 163°
2026-04-24 11:34 46.77578 16.64654 32962 ft 461 kts 154°
2026-04-24 11:34 46.74626 16.66468 32988 ft 471 kts 154°
2026-04-24 11:35 46.68454 16.70158 32984 ft 480 kts 154°
2026-04-24 11:35 46.62278 16.73817 32986 ft 479 kts 154°
2026-04-24 11:36 46.56117 16.77457 32986 ft 478 kts 154°
2026-04-24 11:36 46.49956 16.81089 32986 ft 479 kts 154°
2026-04-24 11:37 46.43809 16.84702 32991 ft 477 kts 154°
2026-04-24 11:37 46.37655 16.88312 32991 ft 479 kts 154°
2026-04-24 11:38 46.31513 16.91905 32992 ft 478 kts 154°
2026-04-24 11:38 46.25047 16.94242 33000 ft 486 kts 172°
2026-04-24 11:39 46.18310 16.93904 33000 ft 492 kts 188°
2026-04-24 11:39 46.11837 16.90787 33005 ft 495 kts 202°
2026-04-24 11:40 46.05370 16.87380 33002 ft 494 kts 197°
2026-04-24 11:40 45.98869 16.84266 33002 ft 494 kts 197°
2026-04-24 11:41 45.92399 16.81193 33002 ft 493 kts 197°
2026-04-24 11:41 45.85870 16.78101 32994 ft 494 kts 197°
2026-04-24 11:42 45.79345 16.75019 32992 ft 493 kts 197°
2026-04-24 11:42 45.72889 16.71976 32993 ft 492 kts 197°
2026-04-24 11:43 45.66411 16.68931 32987 ft 483 kts 197°
2026-04-24 11:43 45.60139 16.65990 32991 ft 473 kts 196°
2026-04-24 11:44 45.53878 16.63061 32996 ft 474 kts 196°
2026-04-24 11:44 45.47620 16.60140 32995 ft 474 kts 196°
2026-04-24 11:45 45.41378 16.57232 32995 ft 472 kts 196°
2026-04-24 11:45 45.35165 16.54346 32994 ft 473 kts 196°
2026-04-24 11:46 45.28894 16.51439 32997 ft 472 kts 196°
2026-04-24 11:46 45.22659 16.48556 32999 ft 472 kts 196°
2026-04-24 11:47 45.16415 16.45675 33002 ft 471 kts 196°
2026-04-24 11:47 45.10251 16.42538 33006 ft 473 kts 202°
2026-04-24 11:48 45.04257 16.38848 33004 ft 474 kts 201°
2026-04-24 11:48 44.98203 16.35211 33008 ft 472 kts 201°
2026-04-24 11:49 44.92152 16.31591 33002 ft 472 kts 200°
2026-04-24 11:49 44.86126 16.27994 32999 ft 472 kts 200°
2026-04-24 11:50 44.80096 16.24402 32999 ft 470 kts 200°
2026-04-24 11:50 44.74094 16.20836 32999 ft 470 kts 200°
2026-04-24 11:51 44.68075 16.17267 32997 ft 469 kts 200°
2026-04-24 11:51 44.62065 16.13713 32995 ft 468 kts 200°
2026-04-24 11:52 44.56170 16.10231 32939 ft 444 kts 200°
2026-04-24 11:52 44.53383 16.08589 32809 ft 428 kts 200°
2026-04-24 11:52 44.50691 16.07005 32604 ft 415 kts 200°
2026-04-24 11:53 44.48071 16.05464 32407 ft 407 kts 200°
2026-04-24 11:53 44.45411 16.03905 32035 ft 430 kts 200°
2026-04-24 11:53 44.42559 16.02232 31674 ft 453 kts 200°
2026-04-24 11:53 44.39573 16.00481 31210 ft 468 kts 200°
2026-04-24 11:54 44.36585 15.98729 30704 ft 468 kts 200°
2026-04-24 11:54 44.33612 15.96989 30164 ft 463 kts 200°
2026-04-24 11:54 44.30681 15.95276 29607 ft 457 kts 200°
2026-04-24 11:54 44.27787 15.93587 29045 ft 451 kts 200°
2026-04-24 11:55 44.24889 15.91898 28479 ft 447 kts 200°
2026-04-24 11:55 44.22019 15.90226 27913 ft 444 kts 200°
2026-04-24 11:55 44.19152 15.88743 27354 ft 439 kts 192°
2026-04-24 11:55 44.16180 15.87945 26807 ft 431 kts 180°
2026-04-24 11:56 44.13229 15.88027 26284 ft 425 kts 175°
2026-04-24 11:56 44.10325 15.88133 25742 ft 418 kts 165°
2026-04-24 11:56 44.07634 15.89442 25220 ft 407 kts 149°
2026-04-24 11:56 44.05125 15.91186 24648 ft 405 kts 148°
2026-04-24 11:57 44.02642 15.92946 24052 ft 402 kts 148°
2026-04-24 11:57 44.00153 15.94720 23439 ft 398 kts 148°
2026-04-24 11:57 43.97718 15.96458 22860 ft 395 kts 148°
2026-04-24 11:57 43.95304 15.98180 22279 ft 391 kts 148°
2026-04-24 11:58 43.92909 15.99888 21707 ft 387 kts 148°
2026-04-24 11:58 43.90503 16.01602 21125 ft 385 kts 148°
2026-04-24 11:58 43.88140 16.03283 20553 ft 383 kts 148°
2026-04-24 11:58 43.85801 16.04947 19975 ft 381 kts 149°
2026-04-24 11:59 43.83463 16.06609 19407 ft 379 kts 149°
2026-04-24 11:59 43.81107 16.08281 18825 ft 376 kts 149°
2026-04-24 11:59 43.78791 16.09924 18311 ft 372 kts 149°
2026-04-24 11:59 43.76475 16.11565 17843 ft 370 kts 149°
2026-04-24 12:00 43.74204 16.13173 17365 ft 363 kts 149°
2026-04-24 12:00 43.71981 16.14745 16889 ft 356 kts 149°
2026-04-24 12:00 43.69795 16.16290 16446 ft 348 kts 149°
2026-04-24 12:00 43.67633 16.17818 16024 ft 341 kts 148°
2026-04-24 12:01 43.65538 16.19297 15577 ft 335 kts 148°
2026-04-24 12:01 43.63496 16.20736 15175 ft 328 kts 148°
2026-04-24 12:01 43.61461 16.22170 14790 ft 321 kts 148°
2026-04-24 12:01 43.59484 16.23563 14430 ft 315 kts 148°
2026-04-24 12:02 43.57557 16.24919 14105 ft 311 kts 148°
2026-04-24 12:02 43.55633 16.26272 13792 ft 311 kts 148°
2026-04-24 12:02 43.53683 16.27643 13482 ft 312 kts 148°
2026-04-24 12:02 43.51756 16.28995 13175 ft 313 kts 149°
2026-04-24 12:03 43.49851 16.30393 12857 ft 310 kts 140°
2026-04-24 12:03 43.48250 16.32332 12570 ft 304 kts 132°
2026-04-24 12:03 43.46734 16.34318 12265 ft 303 kts 132°
2026-04-24 12:03 43.45207 16.36323 11952 ft 301 kts 132°
2026-04-24 12:04 43.43702 16.38298 11653 ft 300 kts 132°
2026-04-24 12:04 43.42193 16.40254 11382 ft 301 kts 137°
2026-04-24 12:04 43.40282 16.41455 11062 ft 309 kts 169°
2026-04-24 12:04 43.38165 16.41186 10841 ft 312 kts 199°
2026-04-24 12:05 43.36162 16.40029 10580 ft 313 kts 202°
2026-04-24 12:05 43.34169 16.38853 10200 ft 312 kts 202°
2026-04-24 12:05 43.32185 16.37691 9864 ft 308 kts 202°
2026-04-24 12:05 43.30223 16.36547 9505 ft 304 kts 202°
2026-04-24 12:06 43.28288 16.35420 9177 ft 299 kts 202°
2026-04-24 12:06 43.26414 16.34330 8845 ft 294 kts 202°
2026-04-24 12:06 43.24547 16.33244 8508 ft 290 kts 202°
2026-04-24 12:06 43.22679 16.32158 8192 ft 287 kts 202°
2026-04-24 12:07 43.21077 16.30655 7848 ft 282 kts 234°
2026-04-24 12:07 43.20334 16.28263 7593 ft 275 kts 268°
2026-04-24 12:07 43.20618 16.25739 7314 ft 267 kts 293°
2026-04-24 12:07 43.21280 16.23360 6977 ft 267 kts 295°
2026-04-24 12:08 43.21984 16.21030 6625 ft 265 kts 296°
2026-04-24 12:08 43.22737 16.18729 6248 ft 260 kts 305°
2026-04-24 12:08 43.24038 16.17170 5916 ft 248 kts 342°
2026-04-24 12:08 43.25696 16.17005 5603 ft 243 kts 14°
2026-04-24 12:09 43.27315 16.17712 5282 ft 243 kts 19°
2026-04-24 12:09 43.28889 16.18518 4940 ft 243 kts 20°
2026-04-24 12:09 43.30461 16.19373 4560 ft 242 kts 21°
2026-04-24 12:09 43.32000 16.20236 4174 ft 240 kts 21°
2026-04-24 12:10 43.33536 16.21111 3830 ft 239 kts 22°
2026-04-24 12:10 43.35096 16.21910 3458 ft 237 kts 17°
2026-04-24 12:10 43.36635 16.22599 3127 ft 233 kts 17°
2026-04-24 12:11 43.39564 16.23916 3038 ft 210 kts 17°
2026-04-24 12:11 43.40969 16.24364 2822 ft 206 kts
2026-04-24 12:11 43.42337 16.24282 2886 ft 189 kts 356°
2026-04-24 12:11 43.43630 16.24148 2845 ft 181 kts 356°
2026-04-24 12:12 43.44785 16.23983 3048 ft 147 kts 354°
2026-04-24 12:12 43.46070 16.23710 2644 ft 135 kts 351°
2026-04-24 12:12 43.46661 16.23560 2490 ft 125 kts 351°
2026-04-24 12:12 43.47506 16.23349 2139 ft 123 kts 351°
2026-04-24 12:13 43.48352 16.23132 1740 ft 125 kts 349°
2026-04-24 12:13 43.49202 16.23018 1384 ft 121 kts 10°
2026-04-24 12:13 43.49963 16.23467 1072 ft 123 kts 28°
2026-04-24 12:13 43.50656 16.24203 849 ft 127 kts 39°
2026-04-24 12:14 43.51261 16.25095 629 ft 139 kts 46°
2026-04-24 12:14 43.51825 16.26098 511 ft 137 kts 49°
2026-04-24 12:14 43.52388 16.27107 358 ft 130 kts 48°
2026-04-24 12:14 43.52957 16.28128 192 ft 133 kts 47°
2026-04-24 12:15 43.53519 16.29129 77 ft 127 kts 48°
2026-04-24 12:15 43.53940 16.29874 66 ft 52 kts 51°
2026-04-24 12:15 43.54035 16.30071 64 ft 10 kts 106°
2026-04-24 12:15 43.53965 16.30083 62 ft 12 kts 198°
2026-04-24 12:16 43.53892 16.30036 62 ft 6 kts 248°
2026-04-24 12:16 43.53868 16.29987 62 ft 6 kts 223°
2026-04-24 12:16 43.53840 16.30009 61 ft 6 kts 102°
2026-04-24 12:16 43.53829 16.30051 60 ft 0 kts 112°